Weather past 2 weeks in Jamestown, Saint Helena

Now
63 °F

Mild.


Feels Like: 63 °F
Forecast: 70 / 72 °F
Wind: 16 mph from Southeast

Location: Saint Helena Island

Current Time: Dec 22, 2014 at 7:07:36 AM

Latest Report: Dec 22, 2014 at 6:00 AM


Visibility: N/A

Pressure: 30.04 "Hg

Humidity: 92%

Dew point: 60 °F

Location of JamestownLocation

Historic Weather in Jamestown — Graph

°F

Jamestown temperature yesterday

Maximum temperature yesterday: 66 °F (at 2:00 PM)
Minimum temperature yesterday: 60 °F (at 6:00 AM)
Average temperature yesterday: 63 °F

Past Weeks' High & Low Weather Summary

 TemperatureHumidityPressure
High71 °F (Dec 19, 1:00 PM)100% (Dec 10, 8:00 AM)30.13 "Hg (Dec 10, 8:00 AM)
Low60 °F (Dec 21, 6:00 AM)59% (Dec 18, 1:00 PM)29.96 "Hg (Dec 8, 4:00 PM)
Average64 °F86%30.05 "Hg
* Reported Dec 7 5:00 AM — Dec 22 5:00 AM, Jamestown, Weather by CustomWeather, © 2014

Note: Actual official high and low records may vary slightly from our data, if they occured in-between our weather recording intervals... More about our weather records

Advertising

Jamestown weather history for previous 24 hours

 ConditionsComfort  
Time TempWeatherWind HumidityBarometerVisibility
5:00 AM
Dec 22
62 °FMild.17 mph94%30.02 "HgN/A
4:00 AM62 °FMild.17 mph89%30.02 "HgN/A
1:00 AM63 °FMild.18 mph89%30.05 "HgN/A
12:00 AM63 °FMild.17 mph92%30.07 "HgN/A
11:00 PM
Dec 21
63 °FMild.15 mph91%30.09 "HgN/A
10:00 PM63 °FMild.16 mph92%30.09 "HgN/A
8:00 PM63 °FMild.15 mph90%30.05 "HgN/A
7:00 PM63 °FMild.16 mph92%30.03 "HgN/A
6:00 PM64 °FMild.15 mph89%30.02 "HgN/A
5:00 PM64 °FMild.16 mph90%30.01 "HgN/A
4:00 PM63 °FMild.21 mph92%30.02 "HgN/A
3:00 PM65 °FMild.20 mph88%30.03 "HgN/A
2:00 PM66 °FMild.21 mph86%30.05 "HgN/A
1:00 PM65 °FMild.18 mph94%30.07 "HgN/A
12:00 PM63 °FMild.21 mph99%30.09 "HgN/A
11:00 AM65 °FMild.17 mph91%30.09 "HgN/A
10:00 AM62 °FCool.21 mph100%30.11 "HgN/A
9:00 AM64 °FMild.16 mph88%30.10 "HgN/A
8:00 AM62 °FCool.15 mph92%30.09 "HgN/A
7:00 AM63 °FMild.14 mph89%30.08 "HgN/A
Weather by CustomWeather, © 2014

See weather overviewHow to use our weather pages